Location: Hamilton
(43.2500°N, 79.8330°W)
Time: 11:19:55
(UTC-04:00)

Amateur Radio Satellites - All Passes

Search period start: 31 August 2015 10:49
Search period end: 01 September 2015 10:49
Location: Hamilton, 43.2500°N, 79.8330°W

Satellite Date Start Highest point End Downlink Frequencies (MHz)
Time Altitude Azimuth
POLYITAN 1 31 Aug 10:50:22 10:53:50 25° 68° (ENE) 10:57:24 437.675
UWE-3 31 Aug 10:50:26 10:55:01 59° 100° (E) 10:59:27 435.000/436.395/437.385
FUNcube-1 31 Aug 10:50:58 10:55:16 43° 98° (E) 10:59:28 145.935
POPSAT HIP 1 31 Aug 10:53:12 10:56:42 26° 68° (ENE) 11:00:18 437.405
DUCHIFAT 1 31 Aug 10:54:18 10:57:46 26° 68° (ENE) 11:01:20 145.980
PCSat 31 Aug 10:54:37 10:59:33 34° 49° (NE) 11:04:30 145.827
AUBIESAT-1 31 Aug 10:56:02 11:00:47 88° 252° (WSW) 11:05:29 437.475
M-CUBED/EXP-1 PRIME 31 Aug 11:00:40 11:05:27 69° 254° (WSW) 11:10:12 437.505
CUTE 1.7 + AOD 2 31 Aug 11:01:50 11:05:10 22° 292° (WNW) 11:08:24 437.475
DELFI C3 31 Aug 11:04:59 11:08:57 64° 101° (E) 11:12:54 145.870
BUGSAT 1 31 Aug 11:05:20 11:08:22 21° 66° (ENE) 11:11:30 437.445
Cosmos 2491 31 Aug 11:05:40 11:13:53 43° 289° (WNW) 11:22:02 435.465 / 435.565
UNISAT 6 31 Aug 11:08:19 11:13:00 80° 256° (WSW) 11:17:45 437.425
QB50P2 31 Aug 11:09:27 11:13:26 39° 71° (ENE) 11:17:27 145.880/145.840
NANOSAT C BR1 31 Aug 11:11:02 11:14:58 39° 71° (ENE) 11:18:58 145.865
PHONESAT 2.4 31 Aug 11:14:56 11:17:49 26° 201° (SSW) 11:20:41 2401.200-2431.200
CANX-2 31 Aug 11:16:27 11:18:57 15° 296° (WNW) 11:21:16 2200.000
GOMX 1 31 Aug 11:19:15 11:21:21 12° 301° (WNW) 11:23:11 467.674
QB50P1 31 Aug 11:24:10 11:28:19 56° 73° (ENE) 11:32:31 145.935-145.965
DX 1 31 Aug 11:31:02 11:34:41 26° 95° (E) 11:38:25 434.975-435.025
Cosmos 2504 31 Aug 11:32:51 11:41:27 85° 264° (W) 11:49:31 435.465 / 435.565
ISS 31 Aug 11:35:34 11:38:27 28° 341° (NNW) 11:41:19 145.825
HUMSAT D 31 Aug 11:35:45 11:39:55 53° 99° (E) 11:44:01 437.325/437.525
ESTCUBE 1 31 Aug 11:35:46 11:38:14 15° 89° (E) 11:40:52 437.505/2401.250
DOVE 4 31 Aug 11:35:54 11:38:12 13° 300° (WNW) 11:40:14 437.250
TIGRISAT 31 Aug 11:37:31 11:41:58 42° 263° (W) 11:46:26 435.000
SEEDS 31 Aug 11:39:50 11:41:30 12° 297° (WNW) 11:42:58 437.485
Oscar 11 31 Aug 11:39:56 11:43:55 35° 290° (WNW) 11:47:49 145.826/435.025
CUSAT 1 31 Aug 11:43:15 11:50:58 83° 79° (E) 11:59:17 437.405
UKube-1 31 Aug 11:44:30 11:48:24 32° 97° (E) 11:52:19 .
50 SAT 31 Aug 11:48:40 11:52:04 29° 96° (E) 11:55:28 437.505
AISAT 31 Aug 11:50:23 11:54:14 28° 95° (E) 11:58:09 437.250
CUBEBUG 1 31 Aug 11:53:29 11:56:31 19° 91° (E) 11:59:42 437.445
ANTELSAT 31 Aug 11:54:53 11:58:56 28° 266° (W) 12:02:58 437.575/2403.000
HO-68 31 Aug 11:56:47 12:02:09 22° 304° (WNW) 12:07:17 435.675
SO-50 31 Aug 12:02:27 12:06:00 20° 249° (WSW) 12:09:22 436.795
DANDE 31 Aug 12:06:18 12:13:46 86° 79° (ENE) 12:22:20 436.750
VELOX 1 31 Aug 12:18:26 12:22:49 53° 100° (E) 12:27:12 145.980
CUBEBUG 2 31 Aug 12:19:57 12:22:51 16° 297° (WNW) 12:25:32 437.445
ZACube-1 31 Aug 12:22:08 12:25:39 22° 294° (WNW) 12:28:59 437.345
POLYITAN 1 31 Aug 12:25:49 12:29:38 30° 265° (W) 12:33:26 437.675
FUNcube-1 31 Aug 12:27:59 12:31:17 20° 295° (WNW) 12:34:26 145.935
UWE-3 31 Aug 12:28:12 12:31:04 16° 297° (WNW) 12:33:43 435.000/436.395/437.385
POPSAT HIP 1 31 Aug 12:28:45 12:32:29 29° 265° (W) 12:36:13 437.405
DUCHIFAT 1 31 Aug 12:29:45 12:33:29 29° 265° (W) 12:37:12 145.980
AUBIESAT-1 31 Aug 12:35:23 12:36:08 10° 269° (W) 12:36:34 437.475
PCSat 31 Aug 12:38:00 12:43:02 39° 248° (WSW) 12:47:59 145.827
BUGSAT 1 31 Aug 12:39:55 12:43:38 34° 263° (W) 12:47:24 437.445
DELFI C3 31 Aug 12:42:03 12:43:32 12° 297° (WNW) 12:44:50 145.870
QB50P2 31 Aug 12:46:25 12:49:30 19° 268° (W) 12:52:31 145.880/145.840
NANOSAT C BR1 31 Aug 12:47:53 12:50:59 19° 268° (W) 12:53:59 145.865
Oscar 19 31 Aug 12:51:44 12:55:49 25° 65° (ENE) 13:00:01 437.125/150
TISAT 1 31 Aug 12:58:07 13:00:42 16° 90° (E) 13:03:25 437.305
QB50P1 31 Aug 13:02:23 13:04:36 13° 271° (W) 13:06:39 145.935-145.965
DX 1 31 Aug 13:07:05 13:10:57 30° 291° (WNW) 13:14:46 434.975-435.025
GONETS M04 31 Aug 13:07:57 13:14:30 23° 61° (ENE) 13:21:22
ESTCUBE 1 31 Aug 13:11:06 13:15:31 56° 287° (WNW) 13:19:55 437.505/2401.250
HUMSAT D 31 Aug 13:12:42 13:15:15 15° 296° (WNW) 13:17:37 437.325/437.525
ISS 31 Aug 13:13:13 13:15:35 18° 1° (N) 13:17:58 145.825
JAS-2 31 Aug 13:17:54 13:21:20 14° 51° (NE) 13:25:11 435.910
UKube-1 31 Aug 13:20:50 13:24:24 25° 293° (WNW) 13:27:53 .
50 SAT 31 Aug 13:23:26 13:26:27 21° 292° (WNW) 13:29:21 437.505
SPROUT 31 Aug 13:26:24 13:30:41 57° 100° (E) 13:34:58 437.525
AISAT 31 Aug 13:26:53 13:30:47 29° 292° (WNW) 13:34:38 437.250
CUSAT 1 31 Aug 13:27:06 13:32:57 23° 275° (W) 13:38:44 437.405
Cosmos 2504 31 Aug 13:27:13 13:32:26 17° 283° (WNW) 13:37:05 435.465 / 435.565
CUBEBUG 1 31 Aug 13:28:55 13:33:06 43° 289° (WNW) 13:37:17 437.445
Gurwin Techsat 1B 31 Aug 13:29:03 13:32:31 18° 62° (ENE) 13:36:08 435.225
AO-7 31 Aug 13:34:22 13:36:17 11° 40° (NE) 13:38:40 29.400- 29.500
ITAMSAT 1 31 Aug 13:49:38 13:53:31 23° 64° (ENE) 13:57:31 435.822/435.867
DANDE 31 Aug 13:50:49 13:56:26 22° 274° (W) 14:02:08 436.750
VELOX 1 31 Aug 13:56:05 13:58:59 17° 296° (WNW) 14:01:45 145.980
SWISSCUBE 31 Aug 13:57:27 13:59:40 13° 88° (E) 14:02:08 437.505
Cosmos 2499 31 Aug 14:21:40 14:27:03 18° 56° (NE) 14:32:38 435.465 / 435.565
Oscar 19 31 Aug 14:29:59 14:34:56 45° 262° (W) 14:39:55 437.125/150
TISAT 1 31 Aug 14:32:38 14:36:46 47° 287° (WNW) 14:40:51 437.305
ITUPSAT 1 31 Aug 14:34:17 14:38:23 28° 95° (E) 14:42:32 437.325
ISS 31 Aug 14:49:42 14:52:42 32° 21° (NNE) 14:55:41 145.825
JAS-2 31 Aug 14:57:28 15:04:56 59° 70° (ENE) 15:12:38 435.910
BEESAT 3 31 Aug 15:01:24 15:04:25 21° 113° (ESE) 15:07:33 437.485
HORYU 2 31 Aug 15:02:26 15:04:21 13° 62° (ENE) 15:06:29 437.375
GONETS M04 31 Aug 15:03:44 15:12:34 82° 264° (W) 15:21:24
SPROUT 31 Aug 15:03:47 15:06:20 15° 296° (WNW) 15:08:44 437.525
Gurwin Techsat 1B 31 Aug 15:06:44 15:12:01 66° 258° (WSW) 15:17:20 435.225
BEESAT 31 Aug 15:07:25 15:12:10 62° 101° (E) 15:16:52 436.000
BEESAT 2 31 Aug 15:12:46 15:15:48 21° 113° (ESE) 15:18:56 435.950
AO-7 31 Aug 15:19:24 15:27:07 45° 62° (ENE) 15:34:55 29.400- 29.500
ITAMSAT 1 31 Aug 15:27:42 15:32:43 50° 261° (W) 15:37:45 435.822/435.867
SWISSCUBE 31 Aug 15:33:20 15:38:04 67° 287° (WNW) 15:42:47 437.505
STARS 31 Aug 16:08:27 16:12:13 27° 95° (E) 16:16:00 437.465
ITUPSAT 1 31 Aug 16:12:02 16:16:18 32° 292° (WNW) 16:20:29 437.325
RS-15 31 Aug 16:12:28 16:22:21 44° 110° (ESE) 16:32:45 29.354- 29.394
Cosmos 2499 31 Aug 16:13:13 16:22:00 80° 80° (E) 16:30:10 435.465 / 435.565
KKS-1 31 Aug 16:25:33 16:30:03 69° 102° (ESE) 16:34:31 437.445
ISS 31 Aug 16:26:04 16:29:10 42° 220° (SW) 16:32:16 145.825
HORYU 2 31 Aug 16:35:57 16:40:27 74° 257° (WSW) 16:44:58 437.375
MOZHAYETS 4 31 Aug 16:36:27 16:38:40 14° 88° (E) 16:41:06
BEESAT 3 31 Aug 16:38:16 16:42:07 40° 310° (NW) 16:46:00 437.485
JAS-2 31 Aug 16:43:32 16:50:20 33° 269° (W) 16:57:10 435.910
BEESAT 31 Aug 16:46:33 16:49:33 16° 298° (WNW) 16:52:22 436.000
BEESAT 2 31 Aug 16:49:42 16:53:36 41° 310° (NW) 16:57:31 435.950
GONETS M04 31 Aug 17:03:00 17:08:11 16° 283° (WNW) 17:12:51
Cubesat XI-IV 31 Aug 17:06:57 17:09:03 13° 58° (ENE) 17:11:24 437.490
AO-7 31 Aug 17:11:59 17:19:57 45° 261° (W) 17:27:50 29.400- 29.500
AIST 2 31 Aug 17:22:53 17:27:08 86° 302° (WNW) 17:31:25 435.215
STARS 31 Aug 17:44:43 17:48:40 30° 291° (WNW) 17:52:31 437.465
CUTE-I 31 Aug 17:49:16 17:53:43 29° 66° (ENE) 17:58:15 437.470
KKS-1 31 Aug 18:03:49 18:06:10 14° 298° (WNW) 18:08:20 437.445
Cosmos 2499 31 Aug 18:07:52 18:14:12 22° 280° (W) 18:19:55 435.465 / 435.565
MOZHAYETS 4 31 Aug 18:11:51 18:16:23 61° 286° (WNW) 18:20:52
RS-15 31 Aug 18:23:36 18:34:27 60° 314° (NW) 18:45:47 29.354- 29.394
CUBESAT XI-V 31 Aug 18:28:27 18:31:38 19° 91° (E) 18:34:59 437.345
BRITE-PL 31 Aug 18:42:32 18:44:30 13° 60° (ENE) 18:46:44 437.365/2234.400
Cubesat XI-IV 31 Aug 18:43:05 18:48:25 84° 75° (ENE) 18:53:47 437.490
HO-68 31 Aug 18:54:04 18:57:31 15° 51° (NE) 19:01:18 435.675
AIST 2 31 Aug 19:04:02 19:06:23 14° 324° (NW) 19:08:39 435.215
GOMX 1 31 Aug 19:12:09 19:14:50 16° 62° (ENE) 19:17:49 467.674
AIST 1 31 Aug 19:13:56 19:17:40 28° 73° (ENE) 19:21:28
Cosmos 2491 31 Aug 19:18:01 19:24:28 23° 61° (ENE) 19:31:15 435.465 / 435.565
DOVE 4 31 Aug 19:27:24 19:29:48 14° 61° (ENE) 19:32:29 437.250
CUTE-I 31 Aug 19:28:41 19:33:40 39° 263° (W) 19:38:39 437.470
O/OREOS (USA 219) 31 Aug 19:31:04 19:35:25 48° 108° (ESE) 19:39:51 437.305
STRAND 1 31 Aug 19:48:06 19:52:35 31° 95° (E) 19:57:09 437.568
CUBESAT XI-V 31 Aug 20:04:55 20:09:22 47° 288° (WNW) 20:13:49 437.345
CINEMA 3 31 Aug 20:13:50 20:17:01 19° 64° (ENE) 20:20:26 145.822/145.860
BRITE-PL 31 Aug 20:18:02 20:22:23 73° 259° (W) 20:27:06 437.365/2234.400
CUTE 1.7 + AOD 2 31 Aug 20:19:27 20:23:06 28° 69° (ENE) 20:26:49 437.475
Cubesat XI-IV 31 Aug 20:26:53 20:29:19 13° 273° (W) 20:31:26 437.490
CANX-2 31 Aug 20:32:57 20:37:01 44° 72° (ENE) 20:41:07 2200.000
HO-68 31 Aug 20:37:01 20:44:05 67° 70° (ENE) 20:51:14 435.675
PRISM 31 Aug 20:37:08 20:41:14 69° 102° (ESE) 20:45:20 437.425
RS-15 31 Aug 20:40:44 20:50:00 28° 345° (NNW) 20:59:29 29.354- 29.394
GOMX 1 31 Aug 20:47:58 20:52:25 62° 260° (W) 20:57:15 467.674
AIST 1 31 Aug 20:51:40 20:55:15 25° 270° (W) 20:58:45
SEEDS 31 Aug 20:54:42 20:58:51 54° 74° (ENE) 21:03:00 437.485
Oscar 11 31 Aug 21:00:24 21:03:33 20° 66° (ENE) 21:06:48 145.826/435.025
DOVE 4 31 Aug 21:02:19 21:06:55 73° 260° (W) 21:11:52 437.250
O/OREOS (USA 219) 31 Aug 21:11:45 21:15:10 20° 307° (NW) 21:18:31 437.305
Cosmos 2491 31 Aug 21:13:48 21:22:35 82° 264° (W) 21:31:21 435.465 / 435.565
COMPASS 1 31 Aug 21:16:52 21:21:04 75° 76° (ENE) 21:25:17 437.405
YUBILEINY 31 Aug 21:22:15 21:30:34 51° 90° (E) 21:39:02 435.215
STRAND 1 31 Aug 21:27:14 21:31:48 33° 293° (WNW) 21:36:19 437.568
AAUSAT CUBESAT 2 31 Aug 21:27:14 21:31:26 83° 78° (ENE) 21:35:38 437.432
CUBEBUG 2 31 Aug 21:40:38 21:45:12 59° 73° (ENE) 21:49:53 437.445
ZACube-1 31 Aug 21:41:54 21:46:03 36° 70° (ENE) 21:50:17 437.345
FUNcube-1 31 Aug 21:47:17 21:51:30 40° 71° (ENE) 21:55:48 145.935
UWE-3 31 Aug 21:48:01 21:52:30 54° 73° (ENE) 21:57:06 435.000/436.395/437.385
CINEMA 3 31 Aug 21:49:10 21:53:46 55° 261° (W) 21:58:36 145.822/145.860
DELFI C3 31 Aug 21:52:45 21:56:36 44° 73° (ENE) 22:00:29 145.870
CUTE 1.7 + AOD 2 31 Aug 21:55:20 21:59:00 26° 266° (W) 22:02:37 437.475
CANX-2 31 Aug 22:10:16 22:13:12 17° 269° (W) 22:15:59 2200.000
PRISM 31 Aug 22:14:36 22:16:11 12° 298° (WNW) 22:17:33 437.425
Cosmos 2504 31 Aug 22:16:33 22:20:09 14° 75° (ENE) 22:24:24 435.465 / 435.565
HO-68 31 Aug 22:26:45 22:32:28 24° 269° (W) 22:37:59 435.675
DX 1 31 Aug 22:27:45 22:31:20 27° 68° (ENE) 22:35:01 434.975-435.025
HUMSAT D 31 Aug 22:28:05 22:32:09 43° 72° (ENE) 22:36:18 437.325/437.525
SEEDS 31 Aug 22:32:43 22:35:01 14° 271° (W) 22:37:08 437.485
50 SAT 31 Aug 22:33:23 22:36:18 20° 68° (ENE) 22:39:19 437.505
Oscar 11 31 Aug 22:35:22 22:39:29 40° 263° (W) 22:43:36 145.826/435.025
ESTCUBE 1 31 Aug 22:36:41 22:39:27 17° 64° (ENE) 22:42:22 437.505/2401.250
UKube-1 31 Aug 22:40:17 22:44:05 32° 69° (ENE) 22:47:58 .
AISAT 31 Aug 22:49:10 22:52:57 29° 68° (ENE) 22:56:49 437.250
CUBEBUG 1 31 Aug 22:51:03 22:53:57 18° 65° (ENE) 22:56:59 437.445
RS-15 31 Aug 22:57:41 23:07:17 29° 19° (NNE) 23:17:22 29.354- 29.394
UNISAT 6 31 Aug 23:00:15 23:03:37 20° 91° (E) 23:07:01 437.425
Cosmos 2491 31 Aug 23:13:04 23:18:14 17° 283° (WNW) 23:22:52 435.465 / 435.565
VELOX 1 31 Aug 23:16:50 23:21:07 54° 73° (ENE) 23:25:27 145.980
BEESAT 3 31 Aug 23:18:11 23:21:16 21° 42° (NE) 23:24:24 437.485
ZACube-1 31 Aug 23:18:46 23:22:30 24° 268° (W) 23:26:10 437.345
CUBEBUG 2 31 Aug 23:19:28 23:22:20 15° 272° (W) 23:25:03 437.445
YUBILEINY 31 Aug 23:19:39 23:27:43 38° 291° (WNW) 23:35:43 435.215
FUNcube-1 31 Aug 23:24:26 23:27:59 22° 268° (W) 23:31:28 145.935
UWE-3 31 Aug 23:26:26 23:29:26 16° 271° (W) 23:32:16 435.000/436.395/437.385
TIGRISAT 31 Aug 23:28:14 23:32:30 37° 96° (E) 23:36:41 435.000
DELFI C3 31 Aug 23:29:25 23:31:56 15° 270° (W) 23:34:18 145.870
BEESAT 2 31 Aug 23:30:06 23:33:15 21° 42° (NE) 23:36:24 435.950
ANTELSAT 31 Aug 23:45:08 23:49:41 59° 100° (E) 23:54:05 437.575/2403.000
TISAT 1 31 Aug 23:51:51 23:54:06 15° 64° (ENE) 23:56:33 437.305
Cosmos 2504 01 Sep 00:02:51 00:10:56 73° 94° (E) 00:19:30 435.465 / 435.565
DX 1 01 Sep 00:03:42 00:07:31 29° 264° (W) 00:11:19 434.975-435.025
HUMSAT D 01 Sep 00:05:05 00:08:07 18° 269° (W) 00:11:03 437.325/437.525
AIST 2 01 Sep 00:06:32 00:08:38 14° 35° (NE) 00:10:50 435.215
50 SAT 01 Sep 00:07:02 00:10:39 32° 264° (W) 00:14:14 437.505
POLYITAN 1 01 Sep 00:09:37 00:13:41 39° 97° (E) 00:17:43 437.675
AUBIESAT-1 01 Sep 00:10:50 00:14:45 58° 105° (ESE) 00:18:21 437.475
ESTCUBE 1 01 Sep 00:11:33 00:15:56 54° 260° (W) 00:20:21 437.505/2401.250
POPSAT HIP 1 01 Sep 00:12:13 00:16:18 40° 98° (E) 00:20:21 437.405
DUCHIFAT 1 01 Sep 00:12:44 00:16:47 39° 98° (E) 00:20:48 145.980
M-CUBED/EXP-1 PRIME 01 Sep 00:16:05 00:20:08 82° 107° (ESE) 00:23:50 437.505
UKube-1 01 Sep 00:16:43 00:20:16 24° 266° (W) 00:23:46 .
BUGSAT 1 01 Sep 00:20:41 00:24:27 30° 96° (E) 00:28:15 437.445
SPROUT 01 Sep 00:21:18 00:25:26 49° 73° (ENE) 00:29:38 437.525
AISAT 01 Sep 00:25:42 00:29:30 27° 265° (W) 00:33:17 437.250
CUBEBUG 1 01 Sep 00:25:52 00:30:00 44° 262° (W) 00:34:11 437.445
QB50P2 01 Sep 00:29:03 00:33:21 65° 101° (ESE) 00:37:36 145.880/145.840
NANOSAT C BR1 01 Sep 00:30:05 00:34:22 64° 101° (E) 00:38:36 145.865
UNISAT 6 01 Sep 00:36:17 00:40:37 41° 289° (WNW) 00:44:48 437.425
SO-50 01 Sep 00:38:23 00:40:52 15° 109° (ESE) 00:43:37 436.795
BEESAT 01 Sep 00:41:44 00:42:23 10° 59° (ENE) 00:43:17 436.000
QB50P1 01 Sep 00:43:44 00:48:04 89° 272° (W) 00:52:21 145.935-145.965
CUSAT 1 01 Sep 00:51:57 00:55:50 80° 98° (E) 01:01:07 437.405
VELOX 1 01 Sep 00:55:27 00:58:03 15° 270° (W) 01:00:29 145.980
BEESAT 3 01 Sep 00:55:33 00:59:26 45° 242° (WSW) 01:03:14 437.485
SWISSCUBE 01 Sep 01:04:48 01:08:03 19° 64° (ENE) 01:11:26 437.505
TIGRISAT 01 Sep 01:05:24 01:09:03 23° 294° (WNW) 01:12:32 435.000
BEESAT 2 01 Sep 01:07:36 01:11:30 46° 242° (WSW) 01:15:20 435.950
RS-15 01 Sep 01:10:56 01:22:38 65° 49° (NE) 01:34:48 29.354- 29.394
DANDE 01 Sep 01:20:26 01:23:54 85° 280° (W) 01:28:37 436.750
ANTELSAT 01 Sep 01:23:11 01:26:00 16° 297° (WNW) 01:28:37 437.575/2403.000
TISAT 1 01 Sep 01:25:19 01:29:27 55° 260° (W) 01:33:37 437.305
PCSat 01 Sep 01:38:19 01:42:26 23° 108° (ESE) 01:46:41 145.827
ITUPSAT 1 01 Sep 01:42:01 01:46:23 38° 69° (ENE) 01:50:48 437.325
AIST 2 01 Sep 01:43:41 01:47:54 85° 59° (ENE) 01:52:01 435.215
POLYITAN 1 01 Sep 01:46:05 01:49:20 21° 294° (WNW) 01:52:28 437.675
AUBIESAT-1 01 Sep 01:47:01 01:48:57 13° 304° (NW) 01:50:41 437.475
POPSAT HIP 1 01 Sep 01:48:44 01:51:55 20° 294° (WNW) 01:54:58 437.405
DUCHIFAT 1 01 Sep 01:49:08 01:52:20 20° 294° (WNW) 01:55:24 145.980
M-CUBED/EXP-1 PRIME 01 Sep 01:53:36 01:54:14 10° 306° (NW) 01:54:41 437.505
BUGSAT 1 01 Sep 01:56:16 01:59:49 25° 292° (WNW) 02:03:16 437.445
Cosmos 2504 01 Sep 01:57:19 02:04:07 26° 297° (WNW) 02:10:55 435.465 / 435.565
SPROUT 01 Sep 01:59:12 02:01:51 15° 270° (W) 02:04:22 437.525
QB50P2 01 Sep 02:06:37 02:08:45 13° 297° (WNW) 02:10:42 145.880/145.840
NANOSAT C BR1 01 Sep 02:07:32 02:09:43 13° 297° (WNW) 02:11:44 145.865
GONETS M04 01 Sep 02:11:50 02:18:10 24° 81° (E) 02:24:51
BEESAT 01 Sep 02:14:44 02:19:30 80° 76° (ENE) 02:24:18 436.000
SO-50 01 Sep 02:16:03 02:20:51 75° 306° (NW) 02:25:48 436.795
CUSAT 1 01 Sep 02:38:06 02:39:45 11° 307° (NW) 02:41:16 437.405
Oscar 19 01 Sep 02:40:09 02:45:18 59° 100° (E) 02:50:26 437.125/150
SWISSCUBE 01 Sep 02:40:54 02:45:34 52° 260° (W) 02:50:13 437.505
Cosmos 2499 01 Sep 03:03:30 03:06:07 12° 74° (ENE) 03:09:27 435.465 / 435.565
STARS 01 Sep 03:06:21 03:10:04 28° 68° (ENE) 03:13:52 437.465
PCSat 01 Sep 03:20:13 03:25:31 54° 305° (NW) 03:30:51 145.827
ITUPSAT 1 01 Sep 03:20:28 03:24:24 24° 266° (W) 03:28:15 437.325
Gurwin Techsat 1B 01 Sep 03:21:54 03:27:00 46° 98° (E) 03:32:06 435.225
RS-15 01 Sep 03:23:54 03:34:48 42° 250° (WSW) 03:45:45 29.354- 29.394
KKS-1 01 Sep 03:24:26 03:28:52 71° 74° (ENE) 03:33:21 437.445
ITAMSAT 1 01 Sep 03:39:14 03:44:18 53° 100° (E) 03:49:23 435.822/435.867
MOZHAYETS 4 01 Sep 03:39:31 03:42:16 16° 64° (ENE) 03:45:11
JAS-2 01 Sep 03:52:11 03:58:52 45° 95° (E) 04:04:49 435.910
BEESAT 01 Sep 03:56:27 03:58:03 11° 273° (W) 03:59:20 436.000
SO-50 01 Sep 03:59:15 04:02:18 16° 327° (NNW) 04:05:16 436.795
O/OREOS (USA 219) 01 Sep 04:01:53 04:04:27 15° 49° (NE) 04:07:10 437.305
GONETS M04 01 Sep 04:05:34 04:14:14 74° 281° (W) 04:23:00
Oscar 19 01 Sep 04:20:31 04:24:15 20° 297° (WNW) 04:27:49 437.125/150
HORYU 2 01 Sep 04:26:59 04:30:08 19° 92° (E) 04:33:25 437.375
STARS 01 Sep 04:42:33 04:46:27 29° 265° (W) 04:50:19 437.465
Cosmos 2499 01 Sep 04:49:21 04:57:39 64° 93° (E) 05:06:25 435.465 / 435.565
VERMONT LUNAR 01 Sep 04:50:09 04:52:48 29° 164° (SSE) 04:55:28 437.305
Gurwin Techsat 1B 01 Sep 05:02:26 05:06:45 25° 295° (WNW) 05:10:58 435.225
KKS-1 01 Sep 05:04:25 05:06:05 12° 273° (W) 05:07:31 437.445
PCSat 01 Sep 05:07:57 05:10:17 12° 328° (NNW) 05:12:26 145.827
AO-7 01 Sep 05:11:41 05:19:53 60° 103° (ESE) 05:28:03 29.400- 29.500
MOZHAYETS 4 01 Sep 05:14:31 05:19:05 58° 260° (W) 05:23:39
ITAMSAT 1 01 Sep 05:19:34 05:23:29 22° 297° (WNW) 05:27:16 435.822/435.867
CUBESAT XI-V 01 Sep 05:33:04 05:36:27 21° 66° (ENE) 05:39:57 437.345
JAS-2 01 Sep 05:37:25 05:43:46 35° 297° (WNW) 05:49:24 435.910
PHONESAT 2.4 01 Sep 05:38:10 05:39:32 12° 150° (SSE) 05:40:59 2401.200-2431.200
O/OREOS (USA 219) 01 Sep 05:39:53 05:44:30 73° 249° (WSW) 05:49:03 437.305
HORYU 2 01 Sep 06:02:46 06:07:01 42° 289° (WNW) 06:11:11 437.375
GONETS M04 01 Sep 06:07:51 06:13:03 16° 305° (NW) 06:17:48
VERMONT LUNAR 01 Sep 06:26:04 06:28:57 49° 181° (S) 06:31:52 437.305
Cosmos 2499 01 Sep 06:44:03 06:51:33 31° 295° (WNW) 06:59:06 435.465 / 435.565
Cubesat XI-IV 01 Sep 06:59:40 07:04:19 30° 95° (E) 07:09:01 437.490
STRAND 1 01 Sep 07:04:52 07:09:46 50° 71° (ENE) 07:14:42 437.568
AO-7 01 Sep 07:05:03 07:12:21 35° 302° (WNW) 07:19:28 29.400- 29.500
CUBESAT XI-V 01 Sep 07:09:17 07:13:39 42° 263° (W) 07:18:01 437.345
PHONESAT 2.4 01 Sep 07:13:43 07:16:53 36° 165° (SSE) 07:20:03 2401.200-2431.200
PRISM 01 Sep 07:27:53 07:31:54 57° 73° (ENE) 07:35:55 437.425
YUBILEINY 01 Sep 07:31:19 07:38:24 27° 63° (ENE) 07:45:43 435.215
CUTE-I 01 Sep 07:44:08 07:49:29 76° 103° (ESE) 07:54:49 437.470
AIST 1 01 Sep 07:45:47 07:48:16 16° 87° (E) 07:50:55
VERMONT LUNAR 01 Sep 08:02:28 08:05:08 29° 196° (SSW) 08:07:47 437.305
BRITE-PL 01 Sep 08:20:54 08:26:00 38° 95° (E) 08:31:18 437.365/2234.400
Cosmos 2491 01 Sep 08:22:01 08:28:21 24° 81° (E) 08:35:01 435.465 / 435.565
Cubesat XI-IV 01 Sep 08:39:37 08:44:29 37° 292° (WNW) 08:49:18 437.490
STRAND 1 01 Sep 08:45:29 08:49:18 20° 269° (W) 08:52:59 437.568
GOMX 1 01 Sep 08:48:12 08:53:19 40° 96° (E) 08:58:30 467.674
PHONESAT 2.4 01 Sep 08:51:11 08:54:31 53° 182° (S) 08:57:51 2401.200-2431.200
DOVE 4 01 Sep 09:00:19 09:05:03 32° 94° (E) 09:09:47 437.250
COMPASS 1 01 Sep 09:01:38 09:02:37 11° 87° (E) 09:03:51 437.405
ISS 01 Sep 09:05:47 09:08:41 30° 138° (SE) 09:11:36 145.825
PRISM 01 Sep 09:05:57 09:07:45 12° 271° (W) 09:09:21 437.425
SO-50 01 Sep 09:06:49 09:10:43 23° 39° (NE) 09:14:39 436.795
AAUSAT CUBESAT 2 01 Sep 09:11:05 09:12:32 12° 88° (E) 09:14:12 437.432
AIST 1 01 Sep 09:21:31 09:25:35 43° 283° (WNW) 09:29:40
CUTE-I 01 Sep 09:25:43 09:29:00 16° 300° (WNW) 09:32:07 437.470
AUBIESAT-1 01 Sep 09:26:24 09:28:29 13° 57° (ENE) 09:30:44 437.475
YUBILEINY 01 Sep 09:27:23 09:36:13 72° 266° (W) 09:44:55 435.215
M-CUBED/EXP-1 PRIME 01 Sep 09:31:07 09:34:06 17° 59° (ENE) 09:37:12 437.505
CUBEBUG 2 01 Sep 09:33:00 09:34:41 12° 86° (E) 09:36:36 437.445
CUTE 1.7 + AOD 2 01 Sep 09:38:42 09:42:47 47° 98° (E) 09:46:52 437.475
UWE-3 01 Sep 09:40:01 09:40:41 10° 85° (E) 09:41:38 435.000/436.395/437.385
CINEMA 3 01 Sep 09:43:09 09:47:45 36° 95° (E) 09:52:15 145.822/145.860
CUSAT 1 01 Sep 09:44:00 09:48:37 17° 58° (ENE) 09:53:53 437.405
Cosmos 2504 01 Sep 09:49:04 09:55:52 27° 63° (ENE) 10:02:36 435.465 / 435.565
HO-68 01 Sep 09:51:00 09:58:10 64° 102° (ESE) 10:05:18 435.675
CANX-2 01 Sep 09:52:41 09:56:56 77° 102° (ESE) 10:01:08 2200.000
BRITE-PL 01 Sep 09:59:32 10:04:26 33° 291° (WNW) 10:09:24 437.365/2234.400
UNISAT 6 01 Sep 10:00:05 10:03:39 23° 66° (ENE) 10:07:21 437.425
SEEDS 01 Sep 10:13:25 10:17:38 88° 289° (WNW) 10:21:49 437.485
DANDE 01 Sep 10:14:23 10:19:29 20° 62° (ENE) 10:25:23 436.750
Cosmos 2491 01 Sep 10:15:44 10:24:27 74° 281° (W) 10:33:11 435.465 / 435.565
Oscar 11 01 Sep 10:21:35 10:25:27 32° 96° (E) 10:29:21 145.826/435.025
PCSat 01 Sep 10:24:03 10:28:37 27° 45° (NE) 10:33:13 145.827
GOMX 1 01 Sep 10:26:34 10:31:17 30° 293° (WNW) 10:35:58 467.674
TIGRISAT 01 Sep 10:27:34 10:31:54 39° 70° (ENE) 10:36:18 435.000
PHONESAT 2.4 01 Sep 10:29:04 10:32:07 31° 198° (SSW) 10:35:10 2401.200-2431.200
COMPASS 1 01 Sep 10:34:40 10:38:48 65° 285° (WNW) 10:42:53 437.405
DOVE 4 01 Sep 10:37:58 10:42:47 35° 291° (WNW) 10:47:31 437.250
ISS 01 Sep 10:41:56 10:45:02 40° 336° (NNW) 10:48:09 145.825
